Showing default

UPPER FREE FLYER, 43763

Orbit data source: Space-Track

UPPER FREE FLYER, 43763 is a payload satellite owned by Spaceflight Ind (US) in SSO that was launched on Mon, 03 Dec 2018 UTC via an FALCON 9 launch vehicle from the Air Force Western Test Range (AFWTR). Payload-class satellites include a variety of spacecraft equipped with specific instruments for various scientific and technological missions. These include communications satellites like Starlink; space stations such as the ISS; scientific satellites like the Hubble; Earth observation satellites from companies like Planet Labs, Umbra, and HawkEye 360; GPS; miniature CubeSats for education and research; and military/defense satellites.

Loading next visibility...
Identifier
43763, 2018-099F
Orbit
SSO
Country
Flag of USUS
Related business
Manufacturer
Spaceflight Ind
Mission
Commercial Technology
Bus & Motor
SFL-UFF, Unknown motor
Mass
2,271 kg wet, 1,072 kg dry
Launch date (UTC)
2018-12-03 (7 years ago)
Launch vehicle
FALCON 9
Launch site
Air Force Western Test Range (AFWTR)
Object type
Payload
Rocket body
Debris
Shape & HBR
Cyl + 1 Sail, 2.0 m
Radar Cross Section
6.440 m², Large (>1 m²)

Expand to show TLE details & history
Last TLE update: 9 hours ago

TLE from 9 hours ago
0 UPPER FREE FLYER
1 43763U 18099F   26034.58933912  .00004411  00000-0  27167-3 0  9991
2 43763  97.4565  87.2413 0014344  50.2045 310.0445 15.10402997392377
Epoch: 2026-02-03T14:08Z
TLE epoch observation values (Epoch: 2026-02-03T14:08:38.899Z)
Latitude
-0.00007°
Longitude
101.31113°
Altitude
531.673 km
Speed
7.6 km/s
True Right ascension
05h 48m 57s
True Declination
0° 00' 00"
Sunlit
Object was in full shadow at epoch
Visualization orbit readout
Latitude
Unknown
Longitude
Unknown
Altitude
Unknown
Speed
Unknown
Apparent Right ascension
Unknown
Apparent Declination
Unknown
Sunlit
N/A
Visualization observer readout
Local Sidereal Time
00:35:25
Azimuth
Unknown
Elevation
Unknown
Doppler factor
Unknown
Orbital elements
Apogee altitude
541.863 km
Perigee altitude
522.039 km
Semi-major axis
6,910.088 km
Eccentricity
0.00143
Inclination
97.4565°
RAAN
87.2413°
Arg. of periapsis
50.2045°
True anomaly
309.91852°
Mean anomaly
310.0445°
Eccentric anomaly
309.98153°
Mean motion
3.77849 °/min
Orbital period
95.28 mins
BSTAR
0.00027167
Loading maneuver chart data...
Computing Atmospheric mass density...
Loading historical data...
Loading historical data...
Loading historical data...
Loading historical data...
Loading historical data...
Loading historical data...
Loading historical data...

Documentation

Showing up to 5 results
|